Wind_Speed
14 14 15 15 15 15 15 15 15 16 16 15 15 16 16 16 16 17 17 18 18 17 17 17 16 16 17 18 18 18 18 18 17 17 16 15 14 13 12 11 10 9 7
14 14 14 13 14 15 16 16 16 16 16 16 16 16 16 16 16 16 17 18 19 19 19 19 18 17 18 20 19 20 20 20 20 19 19 18 17 15 14 13 12 11 10
12 13 13 13 13 14 15 16 16 16 16 16 16 16 16 16 16 16 17 18 18 19 20 20 19 19 18 20 21 21 22 21 22 22 21 21 20 18 17 16 15 14 12
10 10 11 12 12 13 13 14 15 15 15 16 16 16 16 16 16 16 16 17 18 19 20 20 20 20 20 21 22 22 23 23 24 24 24 23 22 21 20 18 17 16 15
9 9 10 10 10 11 12 13 14 14 15 15 16 16 16 15 15 16 16 17 19 19 20 21 21 22 22 22 22 23 23 24 24 25 26 26 25 24 23 21 20 19 18
8 9 9 9 10 11 12 13 13 13 14 15 15 15 15 15 15 16 16 17 18 19 21 21 22 23 24 24 24 24 25 25 25 25 27 27 28 27 26 25 24 22 21
7 8 8 9 9 10 10 11 11 12 13 13 14 14 14 14 15 15 16 17 18 19 20 22 23 24 25 26 26 26 26 26 27 27 27 28 29 30 29 28 27 25 24
7 7 8 8 9 10 10 11 12 12 12 13 14 14 14 14 15 16 16 17 18 19 20 22 23 24 25 26 28 28 28 29 29 29 29 29 30 31 31 31 31 29 28
6 7 7 8 9 10 10 11 12 12 13 13 14 14 15 15 15 16 17 18 19 20 21 22 23 24 26 27 28 29 30 30 31 31 31 31 32 33 33 33 33 33 31
6 7 8 9 9 10 11 12 12 13 13 14 14 15 15 16 16 16 17 18 20 21 22 23 24 25 26 27 28 30 31 32 32 32 32 32 32 33 34 35 35 35 34
6 6 7 8 9 10 11 13 13 14 14 15 15 16 17 17 18 19 19 20 21 22 23 25 26 26 27 28 29 30 32 33 33 34 35 35 34 34 35 36 37 37 37
5 6 8 9 10 11 13 14 15 16 16 17 17 17 18 19 20 20 21 22 23 24 25 26 27 28 29 29 30 31 32 33 34 35 36 37 37 37 37 37 38 39 38
6 7 8 9 11 12 14 15 16 18 18 19 19 19 20 20 21 21 22 23 24 25 26 27 28 29 30 31 32 33 34 35 35 37 38 38 38 39 39 39 39 40 41
6 8 9 11 12 14 15 17 18 19 20 21 21 21 22 22 22 22 23 24 25 26 27 28 29 31 32 33 34 35 36 37 37 38 39 40 41 41 41 41 41 41 42
8 9 11 13 14 16 17 19 20 21 22 23 23 23 24 24 24 25 25 25 25 26 28 30 30 31 32 34 35 37 38 39 39 40 41 41 42 42 42 43 43 43 43
10 12 13 15 16 18 19 21 22 23 25 25 26 26 25 25 26 26 26 26 26 26 28 31 32 33 33 35 36 38 39 41 42 42 43 43 43 43 44 44 44 44 44
13 14 16 17 18 20 22 23 25 26 26 27 28 28 27 28 28 28 28 28 28 27 28 30 33 34 34 35 36 38 39 41 43 44 44 45 45 45 45 45 45 45 45
15 17 18 19 21 22 24 25 26 28 28 29 29 29 29 30 30 30 30 30 29 29 29 30 32 34 35 36 37 38 39 41 43 44 45 46 47 47 47 47 47 47 46
18 19 21 22 23 24 26 27 28 29 30 31 31 31 31 32 32 32 32 32 31 31 31 31 32 34 35 37 37 38 40 41 43 44 46 47 48 49 49 48 48 48 48
21 22 23 24 25 27 28 29 30 31 31 32 32 33 33 33 34 34 34 34 34 33 33 33 33 34 35 37 37 38 39 40 42 44 46 47 49 49 50 50 49 49 49
24 25 26 27 28 29 30 31 32 33 33 34 34 34 35 35 35 35 35 35 35 35 35 35 34 34 35 37 37 37 37 38 40 42 44 46 48 49 50 51 51 51 50
28 29 29 30 31 32 33 34 35 35 35 35 35 36 36 36 36 36 36 36 37 37 37 36 35 35 35 36 37 37 37 37 38 40 42 44 46 48 50 51 51 52 52
31 31 32 33 34 35 36 36 37 36 36 36 37 37 38 38 37 37 38 38 38 38 37 36 35 35 36 36 37 36 37 37 37 39 41 41 45 46 48 50 51 52 52
33 34 35 36 37 37 38 38 38 38 38 38 39 39 40 39 39 39 39 39 39 39 38 36 35 36 36 37 37 36 36 36 36 38 40 40 42 45 47 49 50 52 52
35 36 37 38 39 40 40 40 40 40 40 41 41 41 41 41 41 41 40 40 40 40 39 37 36 36 36 36 37 36 36 36 35 36 38 38 40 43 45 47 48 50 52
38 38 39 40 40 41 42 42 42 42 42 43 43 43 43 43 42 43 42 41 41 40 39 38 37 37 37 37 36 36 36 36 35 36 38 38 39 41 42 45 47 49 50
Wind_Direction
291 291 291 287 287 288 288 289 286 285 285 283 282 282 280 274 271 264 257 256 255 254 254 252 249 243 240 235 230 229 226 223 223 222 220 219 217 215 213 212 210 207 205
290 288 288 290 289 287 286 287 287 287 286 284 283 283 282 276 270 265 258 253 251 253 253 253 251 248 242 237 234 232 231 228 225 224 224 222 221 220 220 219 217 215 213
290 289 287 289 290 289 289 289 289 289 286 284 284 282 280 278 270 266 260 254 251 251 252 252 252 249 245 240 238 236 234 232 230 227 226 225 224 224 224 223 222 220 219
294 294 293 293 292 293 293 294 293 291 288 287 285 283 281 278 272 267 262 257 253 252 252 252 250 248 247 245 241 240 237 235 232 229 228 227 226 227 226 226 225 225 224
299 302 301 300 301 299 299 299 296 293 291 289 287 285 282 278 276 272 266 260 256 256 254 253 250 249 249 246 245 244 239 237 235 232 231 230 228 228 228 228 228 228 227
308 309 309 308 307 305 306 306 303 300 297 294 291 289 284 278 275 272 269 265 261 260 256 255 253 251 250 248 247 245 243 240 238 237 235 233 231 230 229 230 230 230 230
316 315 317 316 313 314 316 317 316 311 304 301 297 294 289 282 277 273 270 267 262 261 258 257 254 253 251 250 247 246 244 244 242 240 238 236 235 233 232 230 231 231 231
322 324 324 322 322 323 322 322 322 320 314 308 304 300 295 289 284 279 274 270 266 264 261 259 256 255 253 252 249 246 245 245 244 243 242 238 237 236 235 233 232 232 232
329 331 332 331 332 332 329 327 326 324 322 318 313 308 302 297 292 285 279 273 270 266 263 261 260 258 255 253 251 249 247 246 245 244 243 242 239 238 238 236 234 234 233
334 338 340 339 338 337 334 332 330 327 325 321 317 313 310 305 301 295 287 281 275 271 268 265 262 259 257 255 253 251 249 247 246 245 243 243 242 240 239 238 237 236 234
336 339 342 343 342 340 338 337 335 333 329 324 320 315 310 306 302 297 292 287 281 276 271 268 266 263 260 257 255 254 252 249 247 246 244 243 242 242 240 239 239 237 236
339 342 344 344 345 343 340 338 336 334 331 327 322 317 311 307 302 297 293 289 285 279 274 271 268 265 263 260 257 255 253 251 249 247 245 244 244 243 243 241 240 239 238
333 336 339 341 341 341 340 338 336 335 331 327 323 319 314 309 304 301 297 292 288 283 278 273 270 267 265 263 260 257 254 252 250 248 246 245 245 245 244 242 241 240 240
322 328 331 331 331 331 331 331 331 331 329 326 323 320 316 311 306 302 299 295 291 287 282 277 273 269 266 264 262 259 257 254 252 249 248 246 246 245 245 243 242 241 240
312 318 321 322 324 325 327 326 326 325 325 325 323 320 317 312 308 304 301 297 293 288 285 281 277 274 269 266 263 260 258 256 254 252 250 248 247 245 244 243 243 241 240
303 308 311 315 318 321 324 325 324 323 322 321 320 318 317 314 311 308 304 300 296 291 286 284 282 279 275 270 266 262 259 257 255 253 251 249 247 246 244 243 242 242 240
298 303 306 311 313 314 317 319 320 322 321 320 318 317 315 314 313 310 307 303 299 294 289 286 283 282 279 274 269 265 261 258 255 253 252 250 248 246 245 243 242 241 240
295 299 303 307 309 311 313 314 316 318 318 318 317 316 315 314 313 311 309 306 302 299 294 289 286 283 281 277 273 268 264 260 256 254 252 250 249 247 245 244 242 240 239
294 297 300 303 305 307 310 311 312 313 315 316 314 313 313 313 312 311 310 308 305 302 299 294 290 287 284 280 275 271 266 262 258 255 252 250 248 247 246 244 242 241 239
293 296 298 300 303 306 308 309 310 311 312 313 313 312 311 311 311 310 309 308 306 303 301 297 293 289 285 282 278 273 269 265 261 257 254 251 249 247 245 244 242 241 239
291 293 295 298 301 304 305 307 309 309 309 309 310 310 310 310 310 310 309 308 306 304 302 299 295 291 287 283 279 275 271 268 264 260 256 253 250 248 245 243 242 240 239
290 292 294 297 299 300 303 305 307 307 307 307 308 308 309 309 309 309 308 308 306 304 301 299 296 292 288 285 282 278 273 269 265 262 258 255 252 249 247 245 242 240 239
289 292 294 296 298 299 301 303 305 306 306 305 306 307 308 308 308 307 307 307 305 303 301 299 295 292 289 286 283 279 275 270 265 262 260 257 254 250 247 245 243 241 239
289 292 294 296 297 299 300 301 303 303 303 304 305 305 307 307 306 306 306 306 305 304 302 299 295 292 289 286 283 280 276 272 266 262 260 257 255 251 248 245 243 241 239
290 293 294 295 296 298 299 301 301 302 302 303 304 304 305 306 306 306 306 306 305 303 300 297 294 292 289 286 283 279 276 272 267 263 261 258 254 252 249 246 244 242 240
290 292 293 294 295 296 298 299 300 300 301 302 303 303 304 305 304 305 305 305 303 302 299 296 294 292 289 286 283 280 276 272 268 263 261 258 254 252 249 247 245 243 240
Height
5877 5877 5876 5875 5875 5875 5875 5874 5874 5874 5874 5874 5875 5875 5875 5875 5876 5876 5877 5878 5880 5881 5882 5883 5884 5886 5888 5889 5892 5894 5896 5897 5899 5901 5903 5905 5907 5908 5910 5911 5912 5914 5915
5875 5874 5874 5873 5873 5872 5872 5872 5871 5871 5871 5871 5871 5871 5871 5872 5872 5873 5873 5874 5875 5877 5878 5879 5881 5882 5884 5886 5888 5890 5892 5894 5896 5898 5900 5902 5904 5906 5908 5909 5911 5912 5914
5872 5872 5871 5871 5871 5870 5869 5869 5869 5868 5868 5868 5868 5868 5868 5868 5868 5869 5869 5870 5871 5873 5874 5875 5877 5878 5880 5882 5884 5886 5888 5890 5892 5894 5897 5899 5901 5904 5906 5907 5909 5911 5912
5870 5870 5869 5869 5868 5868 5867 5867 5866 5865 5865 5864 5864 5864 5864 5864 5864 5865 5865 5866 5867 5869 5870 5871 5873 5874 5876 5877 5879 5881 5883 5885 5888 5890 5893 5895 5898 5900 5902 5904 5906 5908 5910
5869 5868 5868 5867 5867 5866 5865 5864 5863 5862 5862 5861 5861 5861 5861 5861 5861 5861 5861 5862 5863 5864 5866 5867 5868 5870 5871 5873 5874 5876 5878 5881 5883 5885 5888 5891 5893 5896 5899 5901 5903 5905 5907
5867 5867 5866 5866 5865 5864 5863 5862 5861 5860 5859 5858 5858 5857 5857 5857 5858 5858 5858 5858 5859 5860 5861 5862 5864 5865 5867 5868 5869 5871 5873 5875 5878 5880 5883 5885 5888 5891 5894 5897 5899 5902 5904
5866 5865 5865 5864 5863 5862 5861 5860 5859 5858 5856 5855 5855 5854 5854 5854 5854 5854 5855 5855 5855 5856 5856 5857 5859 5860 5862 5863 5864 5866 5868 5870 5873 5875 5877 5880 5883 5886 5889 5892 5894 5897 5900
5864 5864 5863 5863 5862 5860 5859 5858 5857 5856 5854 5853 5852 5851 5851 5851 5851 5851 5851 5851 5851 5851 5852 5852 5853 5855 5856 5857 5859 5860 5862 5864 5867 5869 5872 5874 5877 5880 5883 5886 5889 5892 5895
5863 5862 5862 5861 5860 5859 5858 5856 5855 5854 5852 5851 5850 5849 5848 5847 5847 5847 5846 5846 5846 5846 5847 5847 5848 5849 5850 5851 5852 5854 5856 5858 5860 5863 5865 5868 5870 5873 5876 5879 5883 5886 5889
5861 5861 5860 5859 5858 5857 5856 5855 5853 5852 5850 5849 5847 5846 5845 5844 5843 5843 5842 5842 5841 5841 5841 5842 5842 5843 5844 5845 5846 5848 5849 5851 5853 5856 5858 5861 5863 5866 5869 5872 5876 5879 5883
5860 5859 5858 5857 5856 5855 5854 5852 5851 5849 5848 5846 5844 5843 5841 5840 5839 5838 5838 5837 5836 5836 5835 5835 5836 5836 5837 5838 5839 5841 5842 5844 5846 5848 5851 5853 5856 5859 5862 5865 5868 5872 5875
5858 5858 5857 5856 5854 5853 5852 5850 5848 5847 5845 5843 5841 5840 5838 5836 5835 5833 5832 5831 5830 5830 5829 5829 5829 5829 5830 5831 5832 5833 5835 5836 5838 5840 5843 5845 5848 5851 5854 5857 5860 5864 5867
5857 5856 5855 5854 5852 5851 5849 5848 5846 5844 5842 5840 5838 5836 5834 5832 5830 5829 5827 5825 5824 5823 5822 5822 5821 5821 5822 5822 5823 5825 5826 5827 5829 5831 5834 5837 5839 5842 5845 5849 5852 5855 5859
5855 5854 5853 5851 5850 5848 5847 5845 5843 5841 5838 5836 5834 5831 5829 5827 5825 5823 5821 5819 5817 5816 5814 5814 5813 5813 5813 5814 5814 5815 5816 5818 5820 5822 5824 5827 5830 5833 5836 5839 5843 5846 5850
5852 5851 5850 5848 5847 5845 5843 5841 5839 5837 5834 5832 5829 5827 5824 5821 5819 5817 5815 5813 5811 5809 5806 5805 5804 5804 5804 5804 5805 5806 5806 5808 5810 5812 5814 5817 5820 5823 5826 5829 5833 5836 5840
5849 5848 5846 5845 5843 5841 5839 5837 5835 5832 5830 5827 5824 5821 5818 5815 5813 5810 5808 5805 5803 5802 5799 5796 5795 5794 5794 5794 5794 5795 5796 5797 5798 5800 5803 5806 5809 5812 5815 5818 5822 5826 5830
5845 5844 5842 5841 5839 5837 5835 5832 5830 5827 5824 5821 5818 5815 5812 5809 5806 5803 5800 5798 5795 5793 5791 5788 5786 5784 5783 5783 5783 5784 5784 5785 5787 5789 5791 5794 5797 5800 5804 5807 5811 5815 5819
5841 5839 5838 5836 5834 5832 5830 5827 5824 5821 5818 5815 5812 5809 5805 5802 5799 5795 5792 5789 5787 5784 5782 5780 5777 5774 5773 5772 5772 5772 5772 5773 5775 5776 5779 5781 5784 5788 5791 5796 5799 5804 5808
5836 5834 5833 5831 5829 5826 5824 5821 5818 5815 5812 5809 5805 5802 5798 5795 5791 5788 5784 5781 5778 5775 5773 5770 5767 5764 5762 5760 5760 5760 5760 5761 5762 5764 5766 5768 5772 5775 5779 5783 5787 5792 5796
5830 5829 5827 5825 5823 5820 5817 5814 5811 5808 5805 5801 5798 5794 5791 5787 5783 5780 5776 5772 5768 5765 5762 5760 5757 5754 5752 5749 5748 5748 5748 5748 5749 5751 5752 5755 5758 5762 5766 5770 5775 5779 5784
5824 5822 5820 5818 5816 5813 5810 5807 5804 5800 5797 5793 5790 5786 5783 5779 5775 5771 5767 5763 5759 5755 5752 5749 5747 5744 5741 5738 5737 5736 5736 5736 5737 5737 5739 5742 5745 5748 5752 5756 5760 5765 5771
5817 5815 5813 5811 5808 5805 5802 5799 5796 5792 5789 5785 5781 5778 5774 5770 5766 5762 5758 5754 5750 5746 5742 5739 5736 5733 5730 5727 5726 5725 5725 5725 5725 5725 5726 5729 5731 5735 5738 5742 5747 5752 5757
5809 5807 5805 5803 5800 5797 5794 5791 5787 5784 5780 5776 5773 5769 5765 5761 5757 5753 5748 5744 5740 5735 5732 5729 5725 5722 5719 5716 5715 5714 5713 5713 5713 5713 5714 5716 5718 5721 5724 5728 5733 5738 5744
5801 5799 5796 5793 5791 5788 5785 5781 5778 5774 5771 5767 5763 5759 5755 5751 5746 5742 5738 5734 5729 5725 5721 5718 5715 5711 5708 5705 5703 5702 5701 5701 5701 5701 5701 5704 5705 5708 5711 5715 5720 5725 5730
5792 5789 5787 5784 5781 5778 5775 5771 5768 5764 5760 5757 5753 5749 5744 5740 5736 5731 5728 5723 5718 5714 5709 5706 5703 5700 5697 5694 5692 5691 5690 5689 5690 5689 5689 5692 5693 5695 5698 5703 5706 5711 5716
5782 5779 5777 5774 5771 5768 5764 5761 5757 5753 5750 5746 5742 5737 5733 5729 5725 5720 5716 5712 5707 5703 5699 5695 5692 5689 5686 5683 5681 5679 5678 5677 5678 5678 5677 5679 5681 5683 5687 5690 5693 5698 5703